Location: Launay
(47.2429°N, 1.5727°E)
Time: 05:02:00
(UTC+00:00)

Cosmos 405 Rocket - Pass Details

Date: 19 May 2025
Orbit: 414 x 448 km, 81.2° (Epoch: 13 June)

Event Time Altitude Azimuth Distance (km) Brightness Sun altitude
Rises 23:04:08 0° 341° (NNW) 2,464 7.6 -22.0°
Reaches altitude 10° 23:06:19 10° 333° (NNW) 1,580 6.2 -22.0°
Enters shadow 23:09:13 36° 279° (W) 722 3.5 -22.1°
